NJE64E LPLA-TNCM

Flight info

Callsign NJE64E
Flight time 5h 24m
Altitude 43000
Route M082F430 DCT INBUL DCT RKDIA M576 MNOLO ULUBA1
Aircraft C700/M-SBDGHM1RWXY/LB2

Departure

Time 2026-04-22 10:04
Airport Lajes Airport (LPLA)

Arrival

Time 2026-04-22 15:29
Airport Princess Juliana International Airport (TNCM)
Time Latitude Longitude Altitude Speed Heading
2026-04-22 09:40 38.76521 -27.09062 165 ft 0 kts 50°
2026-04-22 10:01 38.76523 -27.09058 165 ft 4 kts 50°
2026-04-22 10:01 38.76548 -27.08986 165 ft 10 kts 137°
2026-04-22 10:02 38.76450 -27.08889 166 ft 25 kts 141°
2026-04-22 10:02 38.76347 -27.08820 167 ft 10 kts 236°
2026-04-22 10:02 38.76276 -27.08912 167 ft 11 kts 182°
2026-04-22 10:02 38.76175 -27.08823 168 ft 25 kts 139°
2026-04-22 10:03 38.76001 -27.08644 170 ft 39 kts 141°
2026-04-22 10:03 38.75809 -27.08445 172 ft 27 kts 140°
2026-04-22 10:03 38.75726 -27.08429 172 ft 14 kts 230°
2026-04-22 10:03 38.75669 -27.08542 172 ft 8 kts 298°
2026-04-22 10:04 38.75723 -27.08596 173 ft 21 kts 321°
2026-04-22 10:04 38.76067 -27.08955 180 ft 109 kts 313°
2026-04-22 10:04 38.76802 -27.09692 752 ft 147 kts 316°
2026-04-22 10:04 38.77469 -27.10704 1846 ft 163 kts 286°
2026-04-22 10:05 38.77269 -27.12375 2190 ft 232 kts 246°
2026-04-22 10:05 38.76359 -27.14096 2269 ft 232 kts 240°
2026-04-22 10:05 38.75525 -27.15804 3163 ft 222 kts 246°
2026-04-22 10:05 38.74862 -27.17624 4706 ft 226 kts 252°
2026-04-22 10:06 38.74414 -27.19554 6291 ft 232 kts 262°
2026-04-22 10:06 38.74205 -27.21647 7738 ft 240 kts 271°
2026-04-22 10:06 38.74097 -27.23814 9386 ft 247 kts 273°
2026-04-22 10:06 38.73948 -27.26056 10842 ft 263 kts 272°
2026-04-22 10:07 38.73754 -27.28517 11944 ft 291 kts 271°
2026-04-22 10:07 38.73536 -27.31140 13509 ft 300 kts 270°
2026-04-22 10:07 38.73321 -27.33855 14858 ft 312 kts 271°
2026-04-22 10:07 38.73108 -27.36662 16255 ft 321 kts 271°
2026-04-22 10:08 38.72885 -27.39551 17595 ft 331 kts 271°
2026-04-22 10:08 38.72650 -27.42523 18693 ft 339 kts 271°
2026-04-22 10:08 38.72409 -27.45559 19710 ft 346 kts 271°
2026-04-22 10:08 38.72165 -27.48649 20652 ft 351 kts 271°
2026-04-22 10:09 38.71917 -27.51777 21664 ft 356 kts 271°
2026-04-22 10:09 38.71666 -27.54951 22587 ft 362 kts 271°
2026-04-22 10:09 38.71407 -27.58197 23474 ft 368 kts 272°
2026-04-22 10:09 38.71144 -27.61478 24267 ft 373 kts 271°
2026-04-22 10:10 38.70881 -27.64755 25031 ft 378 kts 271°
2026-04-22 10:10 38.70609 -27.68129 25802 ft 383 kts 271°
2026-04-22 10:10 38.70333 -27.71541 26551 ft 388 kts 271°
2026-04-22 10:10 38.70052 -27.75009 27294 ft 393 kts 271°
2026-04-22 10:11 38.69767 -27.78506 27987 ft 398 kts 271°
2026-04-22 10:11 38.69477 -27.82051 28754 ft 402 kts 271°
2026-04-22 10:11 38.69183 -27.85627 29484 ft 407 kts 271°
2026-04-22 10:11 38.68884 -27.89258 30119 ft 412 kts 271°
2026-04-22 10:12 38.68580 -27.92916 30744 ft 415 kts 270°
2026-04-22 10:12 38.68273 -27.96611 31361 ft 419 kts 270°
2026-04-22 10:12 38.68068 -27.99071 31768 ft 421 kts 269°
2026-04-22 10:12 38.67756 -28.02816 32304 ft 426 kts 269°
2026-04-22 10:13 38.67438 -28.06597 32942 ft 429 kts 268°
2026-04-22 10:13 38.67117 -28.10378 33759 ft 426 kts 269°
2026-04-22 10:13 38.66799 -28.14139 34429 ft 424 kts 268°
2026-04-22 10:13 38.66483 -28.17875 35131 ft 421 kts 268°
2026-04-22 10:14 38.66166 -28.21593 35805 ft 419 kts 268°
2026-04-22 10:14 38.65849 -28.25295 36460 ft 417 kts 267°
2026-04-22 10:14 38.65532 -28.28980 37096 ft 415 kts 267°
2026-04-22 10:14 38.65216 -28.32649 37724 ft 413 kts 267°
2026-04-22 10:15 38.64901 -28.36293 38318 ft 412 kts 266°
2026-04-22 10:15 38.64586 -28.39924 38744 ft 411 kts 266°
2026-04-22 10:15 38.64274 -28.43514 39096 ft 411 kts 266°
2026-04-22 10:15 38.63955 -28.47149 39457 ft 412 kts 266°
2026-04-22 10:16 38.63636 -28.50793 39802 ft 412 kts 266°
2026-04-22 10:16 38.63314 -28.54446 40159 ft 412 kts 266°
2026-04-22 10:16 38.62992 -28.58083 40511 ft 412 kts 266°
2026-04-22 10:16 38.62668 -28.61729 40837 ft 412 kts 266°
2026-04-22 10:17 38.62344 -28.65379 41120 ft 413 kts 266°
2026-04-22 10:17 38.62017 -28.69031 41438 ft 413 kts 266°
2026-04-22 10:17 38.61690 -28.72677 41802 ft 412 kts 266°
2026-04-22 10:17 38.61361 -28.76325 42054 ft 414 kts 266°
2026-04-22 10:18 38.61031 -28.79993 42309 ft 415 kts 266°
2026-04-22 10:18 38.60703 -28.83604 42671 ft 413 kts 266°
2026-04-22 10:18 38.60025 -28.91077 42669 ft 427 kts 265°
2026-04-22 10:19 38.59320 -28.98720 42675 ft 439 kts 266°
2026-04-22 10:19 38.58596 -29.06574 42699 ft 450 kts 265°
2026-04-22 10:20 38.57851 -29.14558 42705 ft 459 kts 266°
2026-04-22 10:20 38.57087 -29.22696 42707 ft 463 kts 266°
2026-04-22 10:21 38.56316 -29.30854 42700 ft 462 kts 266°
2026-04-22 10:21 38.55538 -29.39000 42699 ft 461 kts 266°
2026-04-22 10:22 38.54759 -29.47124 42701 ft 460 kts 265°
2026-04-22 10:22 38.53972 -29.55249 42701 ft 461 kts 266°
2026-04-22 10:23 38.53182 -29.63370 42718 ft 461 kts 265°
2026-04-22 10:23 38.52388 -29.71462 42731 ft 461 kts 265°
2026-04-22 10:24 38.51583 -29.79603 42727 ft 462 kts 266°
2026-04-22 10:24 38.50773 -29.87734 42728 ft 461 kts 266°
2026-04-22 10:25 38.49948 -29.95870 42733 ft 463 kts 264°
2026-04-22 10:25 38.48098 -30.03769 42727 ft 470 kts 249°
2026-04-22 10:26 38.45244 -30.11241 42752 ft 470 kts 248°
2026-04-22 10:26 38.42380 -30.18751 42745 ft 471 kts 247°
2026-04-22 10:27 38.39490 -30.26262 42751 ft 471 kts 248°
2026-04-22 10:27 38.36603 -30.33779 42771 ft 471 kts 248°
2026-04-22 10:28 38.33711 -30.41275 42762 ft 470 kts 248°
2026-04-22 10:28 38.30840 -30.48701 42773 ft 470 kts 247°
2026-04-22 10:29 38.27939 -30.56186 42781 ft 472 kts 248°
2026-04-22 10:29 38.25025 -30.63687 42794 ft 472 kts 247°
2026-04-22 10:30 38.22108 -30.71177 42792 ft 472 kts 247°
2026-04-22 10:30 38.19187 -30.78662 42799 ft 473 kts 247°
2026-04-22 10:31 38.16252 -30.86162 42809 ft 474 kts 247°
2026-04-22 10:31 38.13315 -30.93649 42809 ft 473 kts 247°
2026-04-22 10:32 38.10374 -31.01127 42811 ft 473 kts 247°
2026-04-22 10:32 38.07424 -31.08614 42812 ft 474 kts 247°
2026-04-22 10:33 38.04461 -31.16112 42815 ft 475 kts 247°
2026-04-22 10:33 38.01494 -31.23602 42823 ft 475 kts 247°
2026-04-22 10:34 37.98545 -31.31027 42825 ft 472 kts 247°
2026-04-22 10:34 37.95594 -31.38445 42825 ft 470 kts 247°
2026-04-22 10:35 37.92645 -31.45839 42834 ft 471 kts 247°
2026-04-22 10:35 37.89675 -31.53265 42829 ft 473 kts 247°
2026-04-22 10:36 37.86700 -31.60686 42842 ft 472 kts 247°
2026-04-22 10:36 37.83726 -31.68089 42850 ft 471 kts 247°
2026-04-22 10:37 37.79261 -31.79169 42853 ft 471 kts 247°
2026-04-22 10:38 37.76300 -31.86495 42858 ft 470 kts 247°
2026-04-22 10:38 37.73324 -31.93842 42860 ft 469 kts 247°
2026-04-22 10:39 37.70345 -32.01178 42861 ft 469 kts 247°
2026-04-22 10:39 37.67364 -32.08502 42861 ft 468 kts 247°
2026-04-22 10:40 37.64377 -32.15826 42874 ft 469 kts 247°
2026-04-22 10:40 37.61382 -32.23153 42879 ft 471 kts 247°
2026-04-22 10:41 37.58384 -32.30467 42890 ft 472 kts 247°
2026-04-22 10:41 37.55359 -32.37830 42887 ft 472 kts 247°
2026-04-22 10:42 37.52344 -32.45150 42884 ft 469 kts 247°
2026-04-22 10:42 37.49346 -32.52416 42889 ft 466 kts 247°
2026-04-22 10:43 37.46341 -32.59684 42889 ft 469 kts 247°
2026-04-22 10:43 37.43313 -32.66987 42902 ft 471 kts 247°
2026-04-22 10:44 37.40298 -32.74243 42910 ft 470 kts 247°
2026-04-22 10:44 37.37261 -32.81534 42909 ft 469 kts 247°
2026-04-22 10:45 37.34227 -32.88804 42913 ft 469 kts 247°
2026-04-22 10:45 37.31195 -32.96049 42915 ft 467 kts 247°
2026-04-22 10:46 37.28165 -33.03276 42916 ft 466 kts 247°
2026-04-22 10:46 37.25162 -33.10423 42920 ft 465 kts 247°
2026-04-22 10:47 37.22140 -33.17596 42931 ft 464 kts 247°
2026-04-22 10:47 37.19122 -33.24747 42929 ft 463 kts 247°
2026-04-22 10:48 37.16102 -33.31888 42937 ft 464 kts 247°
2026-04-22 10:48 37.13060 -33.39061 42940 ft 467 kts 247°
2026-04-22 10:49 37.10000 -33.46260 42941 ft 467 kts 247°
2026-04-22 10:49 37.06973 -33.53365 42938 ft 463 kts 247°
2026-04-22 10:50 37.03946 -33.60460 42945 ft 462 kts 247°
2026-04-22 10:50 37.00908 -33.67564 42949 ft 465 kts 247°
2026-04-22 10:51 36.97846 -33.74704 42953 ft 466 kts 247°
2026-04-22 10:51 36.94774 -33.81854 42956 ft 466 kts 247°
2026-04-22 10:52 36.91712 -33.88962 42946 ft 463 kts 247°
2026-04-22 10:52 36.88665 -33.96024 42949 ft 461 kts 247°
2026-04-22 10:53 36.85611 -34.03088 42961 ft 464 kts 247°
2026-04-22 10:53 36.82555 -34.10140 42964 ft 466 kts 247°
2026-04-22 10:54 36.79458 -34.17267 42969 ft 466 kts 247°
2026-04-22 10:54 36.76373 -34.24352 42967 ft 463 kts 247°
2026-04-22 10:55 36.73306 -34.31385 42966 ft 460 kts 247°
2026-04-22 10:55 36.70233 -34.38416 42969 ft 463 kts 247°
2026-04-22 10:56 36.67138 -34.45480 42972 ft 466 kts 247°
2026-04-22 10:56 36.64041 -34.52529 42973 ft 466 kts 247°
2026-04-22 10:57 36.60935 -34.59592 42973 ft 464 kts 247°
2026-04-22 10:57 36.57835 -34.66620 42980 ft 463 kts 247°
2026-04-22 10:58 36.54740 -34.73624 42958 ft 461 kts 247°
2026-04-22 10:58 36.51644 -34.80618 42988 ft 462 kts 248°
2026-04-22 10:59 36.49056 -34.86453 42994 ft 465 kts 247°
2026-04-22 10:59 36.45917 -34.93511 42998 ft 467 kts 247°
2026-04-22 11:00 36.42782 -35.00544 42980 ft 463 kts 247°
2026-04-22 11:00 36.39675 -35.07506 42993 ft 460 kts 248°
2026-04-22 11:01 36.36566 -35.14459 42996 ft 462 kts 247°
2026-04-22 11:01 36.33453 -35.21401 43002 ft 465 kts 247°
2026-04-22 11:02 36.30300 -35.28418 42975 ft 465 kts 247°
2026-04-22 11:02 36.27159 -35.35390 42999 ft 460 kts 247°
2026-04-22 11:03 36.24046 -35.42296 43000 ft 459 kts 247°
2026-04-22 11:03 36.20914 -35.49225 43004 ft 463 kts 247°
2026-04-22 11:04 36.17756 -35.56194 43012 ft 465 kts 247°
2026-04-22 11:04 36.14596 -35.63151 43011 ft 462 kts 247°
2026-04-22 11:05 36.11456 -35.70054 43004 ft 459 kts 247°
2026-04-22 11:05 36.08321 -35.76936 43009 ft 460 kts 247°
2026-04-22 11:06 36.05187 -35.83796 43016 ft 462 kts 247°
2026-04-22 11:06 36.02013 -35.90731 43021 ft 464 kts 247°
2026-04-22 11:07 35.98825 -35.97679 43023 ft 464 kts 247°
2026-04-22 11:07 35.95651 -36.04584 43028 ft 460 kts 247°
2026-04-22 11:08 35.92515 -36.11394 43017 ft 458 kts 247°
2026-04-22 11:08 35.89351 -36.18254 43028 ft 461 kts 247°
2026-04-22 11:09 35.86161 -36.25151 43017 ft 464 kts 246°
2026-04-22 11:09 35.82959 -36.32059 43014 ft 463 kts 246°
2026-04-22 11:10 35.79767 -36.38934 43011 ft 461 kts 246°
2026-04-22 11:10 35.76581 -36.45781 43015 ft 460 kts 246°
2026-04-22 11:11 35.73403 -36.52599 43014 ft 459 kts 246°
2026-04-22 11:11 35.70226 -36.59400 43018 ft 459 kts 246°
2026-04-22 11:12 35.67034 -36.66222 43020 ft 462 kts 246°
2026-04-22 11:12 35.63815 -36.73084 43024 ft 464 kts 246°
2026-04-22 11:13 35.60586 -36.79952 43022 ft 463 kts 246°
2026-04-22 11:13 35.57393 -36.86735 43021 ft 461 kts 246°
2026-04-22 11:14 35.54177 -36.93551 43017 ft 460 kts 246°
2026-04-22 11:14 35.50974 -37.00325 43012 ft 458 kts 246°
2026-04-22 11:15 35.47764 -37.07105 43033 ft 462 kts 246°
2026-04-22 11:15 35.44513 -37.13951 43037 ft 465 kts 246°
2026-04-22 11:16 35.41266 -37.20776 43029 ft 462 kts 246°
2026-04-22 11:16 35.38037 -37.27553 43022 ft 460 kts 245°
2026-04-22 11:17 35.34819 -37.34296 43024 ft 463 kts 245°
2026-04-22 11:17 35.31551 -37.41126 43028 ft 466 kts 245°
2026-04-22 11:18 35.28277 -37.47952 43003 ft 463 kts 245°
2026-04-22 11:18 35.25025 -37.54722 43021 ft 460 kts 245°
2026-04-22 11:19 35.21777 -37.61474 43019 ft 461 kts 245°
2026-04-22 11:19 35.18528 -37.68213 43023 ft 464 kts 245°
2026-04-22 11:20 35.15241 -37.75014 43026 ft 465 kts 245°
2026-04-22 11:20 35.11955 -37.81801 43027 ft 463 kts 245°
2026-04-22 11:21 35.08678 -37.88557 43024 ft 461 kts 245°
2026-04-22 11:21 35.05414 -37.95272 43020 ft 459 kts 245°
2026-04-22 11:22 35.02158 -38.01962 43027 ft 459 kts 245°
2026-04-22 11:22 34.98899 -38.08642 43030 ft 462 kts 245°
2026-04-22 11:23 34.95595 -38.15401 43037 ft 464 kts 245°
2026-04-22 11:23 34.92293 -38.22142 43031 ft 461 kts 244°
2026-04-22 11:24 34.89016 -38.28819 43030 ft 457 kts 244°
2026-04-22 11:24 34.85746 -38.35476 43033 ft 459 kts 244°
2026-04-22 11:25 34.82472 -38.42120 43040 ft 462 kts 244°
2026-04-22 11:25 34.79160 -38.48829 43041 ft 461 kts 244°
2026-04-22 11:26 34.75863 -38.55498 43040 ft 458 kts 244°
2026-04-22 11:26 34.72602 -38.62080 43036 ft 456 kts 244°
2026-04-22 11:27 34.69313 -38.68710 43052 ft 458 kts 244°
2026-04-22 11:27 34.66007 -38.75357 43040 ft 461 kts 244°
2026-04-22 11:28 34.62678 -38.82039 43043 ft 462 kts 244°
2026-04-22 11:28 34.59354 -38.88695 43043 ft 460 kts 244°
2026-04-22 11:29 34.56064 -38.95276 43053 ft 457 kts 244°
2026-04-22 11:29 34.52762 -39.01868 43048 ft 457 kts 244°
2026-04-22 11:30 34.49445 -39.08477 43059 ft 460 kts 244°
2026-04-22 11:30 34.46106 -39.15115 43063 ft 462 kts 243°
2026-04-22 11:31 34.42762 -39.21752 43062 ft 461 kts 243°
2026-04-22 11:31 34.39421 -39.28370 43059 ft 459 kts 243°
2026-04-22 11:32 34.36088 -39.34961 43059 ft 458 kts 243°
2026-04-22 11:32 34.32784 -39.41483 43063 ft 457 kts 243°
2026-04-22 11:33 34.29464 -39.48025 43058 ft 456 kts 243°
2026-04-22 11:33 34.26130 -39.54582 43072 ft 459 kts 243°
2026-04-22 11:34 34.22773 -39.61169 43071 ft 460 kts 243°
2026-04-22 11:34 34.19404 -39.67770 43073 ft 461 kts 243°
2026-04-22 11:35 34.16037 -39.74352 43075 ft 459 kts 243°
2026-04-22 11:35 34.12687 -39.80893 43054 ft 456 kts 243°
2026-04-22 11:36 34.09348 -39.87400 43074 ft 456 kts 243°
2026-04-22 11:36 34.06018 -39.93878 43076 ft 458 kts 243°
2026-04-22 11:37 34.02646 -40.00425 43079 ft 460 kts 243°
2026-04-22 11:37 33.99267 -40.06971 43081 ft 459 kts 243°
2026-04-22 11:38 33.95893 -40.13497 43081 ft 457 kts 243°
2026-04-22 11:38 33.90883 -40.23168 43076 ft 454 kts 243°
2026-04-22 11:39 33.87534 -40.29618 43086 ft 454 kts 243°
2026-04-22 11:39 33.84177 -40.36070 43082 ft 455 kts 243°
2026-04-22 11:40 33.80814 -40.42523 43085 ft 455 kts 243°
2026-04-22 11:40 33.77441 -40.48984 43087 ft 455 kts 243°
2026-04-22 11:41 33.74069 -40.55430 43082 ft 455 kts 243°
2026-04-22 11:41 33.70696 -40.61869 43084 ft 455 kts 243°
2026-04-22 11:42 33.67339 -40.68265 43084 ft 455 kts 243°
2026-04-22 11:42 33.63970 -40.74672 43094 ft 454 kts 243°
2026-04-22 11:43 33.60601 -40.81069 43090 ft 453 kts 243°
2026-04-22 11:43 33.57225 -40.87466 43091 ft 453 kts 243°
2026-04-22 11:44 33.53858 -40.93838 43096 ft 452 kts 243°
2026-04-22 11:44 33.50513 -41.00155 43098 ft 451 kts 243°
2026-04-22 11:45 33.47151 -41.06492 43094 ft 450 kts 243°
2026-04-22 11:45 33.43787 -41.12826 43094 ft 452 kts 243°
2026-04-22 11:46 33.40393 -41.19202 43097 ft 454 kts 243°
2026-04-22 11:46 33.37563 -41.24511 43100 ft 456 kts 243°
2026-04-22 11:47 33.34144 -41.30910 43100 ft 455 kts 242°
2026-04-22 11:47 33.30747 -41.37262 43100 ft 452 kts 243°
2026-04-22 11:48 33.27366 -41.43573 43095 ft 449 kts 243°
2026-04-22 11:48 33.23992 -41.49860 43094 ft 451 kts 242°
2026-04-22 11:49 33.20613 -41.56144 43100 ft 453 kts 242°
2026-04-22 11:49 33.17204 -41.62471 43106 ft 451 kts 242°
2026-04-22 11:50 33.13818 -41.68750 43102 ft 448 kts 242°
2026-04-22 11:50 33.10445 -41.74993 43096 ft 448 kts 242°
2026-04-22 11:51 33.07061 -41.81244 43108 ft 449 kts 242°
2026-04-22 11:51 33.03682 -41.87475 43112 ft 450 kts 242°
2026-04-22 11:52 33.00272 -41.93751 43103 ft 450 kts 242°
2026-04-22 11:52 32.96870 -42.00004 43101 ft 448 kts 242°
2026-04-22 11:53 32.93508 -42.06173 43102 ft 445 kts 242°
2026-04-22 11:53 32.90139 -42.12345 43099 ft 443 kts 242°
2026-04-22 11:54 32.86768 -42.18513 43108 ft 446 kts 242°
2026-04-22 11:54 32.83371 -42.24711 43110 ft 447 kts 242°
2026-04-22 11:55 32.79976 -42.30901 43109 ft 446 kts 242°
2026-04-22 11:55 32.76613 -42.37021 43110 ft 445 kts 242°
2026-04-22 11:56 32.73226 -42.43174 43112 ft 444 kts 242°
2026-04-22 11:56 32.69841 -42.49313 43107 ft 443 kts 242°
2026-04-22 11:57 32.66469 -42.55418 43107 ft 442 kts 242°
2026-04-22 11:57 32.63122 -42.61470 43096 ft 440 kts 242°
2026-04-22 11:58 32.59766 -42.67528 43103 ft 439 kts 242°
2026-04-22 11:58 32.56399 -42.73598 43105 ft 442 kts 242°
2026-04-22 11:59 32.53006 -42.79701 43109 ft 444 kts 242°
2026-04-22 11:59 32.49604 -42.85808 43106 ft 441 kts 242°
2026-04-22 12:00 32.46247 -42.91830 43103 ft 436 kts 242°
2026-04-22 12:00 32.42888 -42.97847 43107 ft 440 kts 242°
2026-04-22 12:01 32.39518 -43.03869 43104 ft 443 kts 242°
2026-04-22 12:01 32.36110 -43.09948 43102 ft 438 kts 242°
2026-04-22 12:02 32.32777 -43.15890 43102 ft 436 kts 242°
2026-04-22 12:02 32.29404 -43.21893 43106 ft 440 kts 242°
2026-04-22 12:03 32.26005 -43.27928 43115 ft 441 kts 242°
2026-04-22 12:03 32.22608 -43.33952 43113 ft 439 kts 242°
2026-04-22 12:04 32.19230 -43.39933 43104 ft 436 kts 242°
2026-04-22 12:04 32.15858 -43.45893 43107 ft 434 kts 242°
2026-04-22 12:05 32.12503 -43.51817 43103 ft 435 kts 242°
2026-04-22 12:05 32.09138 -43.57749 43105 ft 438 kts 242°
2026-04-22 12:06 32.05731 -43.63742 43102 ft 440 kts 242°
2026-04-22 12:06 32.02333 -43.69708 43099 ft 435 kts 242°
2026-04-22 12:07 31.98992 -43.75572 43098 ft 433 kts 242°
2026-04-22 12:07 31.95614 -43.81488 43106 ft 437 kts 242°
2026-04-22 12:08 31.92214 -43.87432 43111 ft 438 kts 242°
2026-04-22 12:08 31.88819 -43.93359 43110 ft 436 kts 242°
2026-04-22 12:09 31.85427 -43.99272 43111 ft 435 kts 242°
2026-04-22 12:09 31.82043 -44.05162 43106 ft 434 kts 242°
2026-04-22 12:10 31.78669 -44.11027 43100 ft 432 kts 242°
2026-04-22 12:10 31.75300 -44.16873 43089 ft 432 kts 242°
2026-04-22 12:11 31.71939 -44.22698 43079 ft 434 kts 242°
2026-04-22 12:11 31.68537 -44.28582 43102 ft 436 kts 242°
2026-04-22 12:12 31.65121 -44.34481 43104 ft 435 kts 242°
2026-04-22 12:12 31.61725 -44.40337 43100 ft 432 kts 242°
2026-04-22 12:13 31.58351 -44.46149 43094 ft 430 kts 242°
2026-04-22 12:13 31.54976 -44.51955 43098 ft 432 kts 242°
2026-04-22 12:14 31.51598 -44.57753 43098 ft 434 kts 242°
2026-04-22 12:14 31.48176 -44.63620 43095 ft 435 kts 241°
2026-04-22 12:15 31.44765 -44.69455 43085 ft 432 kts 242°
2026-04-22 12:15 31.41381 -44.75242 43086 ft 429 kts 242°
2026-04-22 12:16 31.38012 -44.80994 43074 ft 432 kts 241°
2026-04-22 12:16 31.34599 -44.86808 43094 ft 435 kts 241°
2026-04-22 12:17 31.31171 -44.92640 43095 ft 433 kts 241°
2026-04-22 12:17 31.27760 -44.98436 43091 ft 431 kts 241°
2026-04-22 12:18 31.24366 -45.04195 43086 ft 429 kts 241°
2026-04-22 12:18 31.20995 -45.09908 43083 ft 431 kts 241°
2026-04-22 12:19 31.17573 -45.15696 43074 ft 434 kts 241°
2026-04-22 12:19 31.14336 -45.21162 43092 ft 434 kts 241°
2026-04-22 12:20 31.11030 -45.26736 43086 ft 431 kts 241°
2026-04-22 12:20 31.07641 -45.32446 43079 ft 428 kts 241°
2026-04-22 12:21 31.04232 -45.38183 43087 ft 430 kts 241°
2026-04-22 12:21 31.00800 -45.43943 43094 ft 434 kts 240°
2026-04-22 12:22 30.97354 -45.49722 43091 ft 433 kts 240°
2026-04-22 12:22 30.93947 -45.55426 43079 ft 429 kts 240°
2026-04-22 12:23 30.90535 -45.61133 43082 ft 429 kts 240°
2026-04-22 12:23 30.87118 -45.66838 43084 ft 430 kts 240°
2026-04-22 12:24 30.83710 -45.72520 43088 ft 430 kts 240°
2026-04-22 12:24 30.80282 -45.78228 43091 ft 430 kts 240°
2026-04-22 12:25 30.76846 -45.83940 43091 ft 431 kts 240°
2026-04-22 12:25 30.73403 -45.89655 43092 ft 431 kts 240°
2026-04-22 12:26 30.69957 -45.95368 43084 ft 431 kts 240°
2026-04-22 12:26 30.66509 -46.01074 43090 ft 432 kts 240°
2026-04-22 12:27 30.63055 -46.06783 43085 ft 432 kts 240°
2026-04-22 12:27 30.59594 -46.12496 43085 ft 432 kts 240°
2026-04-22 12:28 30.56138 -46.18192 43089 ft 432 kts 240°
2026-04-22 12:28 30.52704 -46.23844 43088 ft 431 kts 240°
2026-04-22 12:29 30.49252 -46.29517 43084 ft 430 kts 240°
2026-04-22 12:29 30.45803 -46.35177 43077 ft 429 kts 240°
2026-04-22 12:30 30.40636 -46.43643 43092 ft 428 kts 239°
2026-04-22 12:31 30.37198 -46.49265 43087 ft 427 kts 239°
2026-04-22 12:31 30.33764 -46.54873 43074 ft 426 kts 239°
2026-04-22 12:32 30.30335 -46.60465 43079 ft 425 kts 239°
2026-04-22 12:32 30.25184 -46.68853 43085 ft 428 kts 239°
2026-04-22 12:33 30.21720 -46.74481 43059 ft 430 kts 239°
2026-04-22 12:33 30.18237 -46.80134 43074 ft 432 kts 239°
2026-04-22 12:34 30.14780 -46.85733 43067 ft 429 kts 239°
2026-04-22 12:34 30.11320 -46.91334 43067 ft 427 kts 239°
2026-04-22 12:35 30.08456 -46.95964 43064 ft 426 kts 239°
2026-04-22 12:35 30.05000 -47.01544 43080 ft 428 kts 239°
2026-04-22 12:36 30.01517 -47.07157 43079 ft 431 kts 239°
2026-04-22 12:36 29.98035 -47.12761 43078 ft 428 kts 239°
2026-04-22 12:37 29.94568 -47.18336 43072 ft 426 kts 239°
2026-04-22 12:37 29.91147 -47.23827 43069 ft 424 kts 239°
2026-04-22 12:38 29.87695 -47.29364 43071 ft 427 kts 239°
2026-04-22 12:38 29.84211 -47.34940 43050 ft 430 kts 239°
2026-04-22 12:39 29.78967 -47.43320 43075 ft 428 kts 238°
2026-04-22 12:40 29.75502 -47.48850 43072 ft 424 kts 239°
2026-04-22 12:40 29.72044 -47.54362 43071 ft 426 kts 238°
2026-04-22 12:41 29.68558 -47.59907 43072 ft 428 kts 238°
2026-04-22 12:41 29.65081 -47.65433 43078 ft 429 kts 238°
2026-04-22 12:42 29.61586 -47.70977 43070 ft 427 kts 238°
2026-04-22 12:42 29.58112 -47.76483 43064 ft 424 kts 238°
2026-04-22 12:43 29.54643 -47.81977 43063 ft 426 kts 238°
2026-04-22 12:43 29.51149 -47.87498 43068 ft 428 kts 238°
2026-04-22 12:44 29.47644 -47.93030 43074 ft 428 kts 238°
2026-04-22 12:44 29.44142 -47.98549 43051 ft 427 kts 238°
2026-04-22 12:45 29.40668 -48.04019 43074 ft 427 kts 238°
2026-04-22 12:45 29.37174 -48.09511 43066 ft 426 kts 238°
2026-04-22 12:46 29.33682 -48.14995 43066 ft 425 kts 238°
2026-04-22 12:46 29.30194 -48.20463 43065 ft 424 kts 238°
2026-04-22 12:47 29.26704 -48.25929 43067 ft 426 kts 238°
2026-04-22 12:47 29.23199 -48.31409 43067 ft 427 kts 238°
2026-04-22 12:48 29.19689 -48.36892 43071 ft 427 kts 238°
2026-04-22 12:48 29.16191 -48.42347 43057 ft 428 kts 238°
2026-04-22 12:49 29.12665 -48.47840 43067 ft 428 kts 238°
2026-04-22 12:49 29.09135 -48.53330 43068 ft 429 kts 238°
2026-04-22 12:50 29.05600 -48.58822 43063 ft 428 kts 238°
2026-04-22 12:50 29.02077 -48.64287 43053 ft 425 kts 238°
2026-04-22 12:51 28.98600 -48.69675 43061 ft 423 kts 237°
2026-04-22 12:51 28.95093 -48.75104 43059 ft 425 kts 237°
2026-04-22 12:52 28.91562 -48.80560 43063 ft 428 kts 237°
2026-04-22 12:52 28.88016 -48.86033 43056 ft 429 kts 237°
2026-04-22 12:53 28.84467 -48.91503 43059 ft 428 kts 237°
2026-04-22 12:53 28.80929 -48.96949 43058 ft 426 kts 237°
2026-04-22 12:54 28.77407 -49.02364 43053 ft 425 kts 237°
2026-04-22 12:54 28.73889 -49.07766 43057 ft 424 kts 237°
2026-04-22 12:55 28.70367 -49.13168 43065 ft 426 kts 237°
2026-04-22 12:55 28.66841 -49.18568 43063 ft 428 kts 237°
2026-04-22 12:56 28.63285 -49.24007 43068 ft 427 kts 237°
2026-04-22 12:56 28.59734 -49.29430 43057 ft 426 kts 237°
2026-04-22 12:57 28.56193 -49.34833 43064 ft 425 kts 237°
2026-04-22 12:57 28.52677 -49.40190 43061 ft 424 kts 237°
2026-04-22 12:58 28.49142 -49.45570 43059 ft 423 kts 237°
2026-04-22 12:58 28.45620 -49.50922 43056 ft 423 kts 237°
2026-04-22 12:59 28.42091 -49.56282 43063 ft 428 kts 237°
2026-04-22 12:59 28.38525 -49.61684 43063 ft 427 kts 237°
2026-04-22 13:00 28.34967 -49.67072 43063 ft 425 kts 237°
2026-04-22 13:00 28.31429 -49.72421 43058 ft 423 kts 237°
2026-04-22 13:01 28.27887 -49.77773 43060 ft 425 kts 237°
2026-04-22 13:01 28.24325 -49.83146 43063 ft 427 kts 237°
2026-04-22 13:02 28.20747 -49.88535 43062 ft 427 kts 237°
2026-04-22 13:02 28.17174 -49.93911 43045 ft 427 kts 237°
2026-04-22 13:03 28.13600 -49.99282 43054 ft 426 kts 237°
2026-04-22 13:03 28.10031 -50.04638 43053 ft 425 kts 237°
2026-04-22 13:04 28.06461 -50.09989 43055 ft 425 kts 237°
2026-04-22 13:04 28.02903 -50.15316 43054 ft 424 kts 237°
2026-04-22 13:05 27.99344 -50.20638 43056 ft 425 kts 236°
2026-04-22 13:05 27.95791 -50.25944 43059 ft 426 kts 236°
2026-04-22 13:06 27.92198 -50.31303 43058 ft 428 kts 236°
2026-04-22 13:06 27.88591 -50.36675 43060 ft 428 kts 236°
2026-04-22 13:07 27.85000 -50.42018 43049 ft 425 kts 236°
2026-04-22 13:07 27.81433 -50.47318 43051 ft 422 kts 236°
2026-04-22 13:08 27.77868 -50.52611 43054 ft 424 kts 236°
2026-04-22 13:08 27.74305 -50.57893 43058 ft 427 kts 236°
2026-04-22 13:09 27.70692 -50.63242 43053 ft 429 kts 236°
2026-04-22 13:09 27.67075 -50.68589 43060 ft 427 kts 236°
2026-04-22 13:10 27.63469 -50.73915 43057 ft 425 kts 236°
2026-04-22 13:10 27.59907 -50.79171 43055 ft 423 kts 236°
2026-04-22 13:11 27.56328 -50.84444 43039 ft 423 kts 236°
2026-04-22 13:11 27.52727 -50.89744 43065 ft 429 kts 236°
2026-04-22 13:12 27.49092 -50.95084 43065 ft 428 kts 236°
2026-04-22 13:12 27.45480 -51.00387 43061 ft 425 kts 236°
2026-04-22 13:13 27.41889 -51.05652 43057 ft 423 kts 236°
2026-04-22 13:13 27.38307 -51.10900 43057 ft 427 kts 236°
2026-04-22 13:14 27.34666 -51.16225 43065 ft 430 kts 236°
2026-04-22 13:14 27.31023 -51.21545 43063 ft 428 kts 236°
2026-04-22 13:15 27.27400 -51.26833 43060 ft 425 kts 236°
2026-04-22 13:15 27.23794 -51.32089 43057 ft 425 kts 236°
2026-04-22 13:16 27.20168 -51.37368 43070 ft 427 kts 236°
2026-04-22 13:16 27.16521 -51.42671 43070 ft 429 kts 236°
2026-04-22 13:17 27.12897 -51.47931 43066 ft 427 kts 236°
2026-04-22 13:17 27.09276 -51.53185 43062 ft 424 kts 236°
2026-04-22 13:18 27.05655 -51.58432 43067 ft 427 kts 236°
2026-04-22 13:18 27.02010 -51.63705 43070 ft 428 kts 236°
2026-04-22 13:19 26.98360 -51.68980 43070 ft 427 kts 236°
2026-04-22 13:19 26.94708 -51.74253 43069 ft 427 kts 236°
2026-04-22 13:20 26.91067 -51.79503 43052 ft 426 kts 236°
2026-04-22 13:20 26.87445 -51.84719 43059 ft 426 kts 235°
2026-04-22 13:21 26.83806 -51.89954 43060 ft 425 kts 235°
2026-04-22 13:21 26.80171 -51.95177 43059 ft 425 kts 235°
2026-04-22 13:22 26.77153 -51.99509 43059 ft 424 kts 235°
2026-04-22 13:22 26.73525 -52.04710 43070 ft 425 kts 235°
2026-04-22 13:23 26.69877 -52.09936 43064 ft 427 kts 235°
2026-04-22 13:23 26.66216 -52.15172 43063 ft 427 kts 235°
2026-04-22 13:24 26.62551 -52.20409 43073 ft 427 kts 235°
2026-04-22 13:24 26.58893 -52.25628 43052 ft 426 kts 235°
2026-04-22 13:25 26.55238 -52.30839 43060 ft 426 kts 235°
2026-04-22 13:25 26.51608 -52.36007 43064 ft 425 kts 235°
2026-04-22 13:26 26.47958 -52.41198 43061 ft 424 kts 235°
2026-04-22 13:26 26.44311 -52.46379 43059 ft 424 kts 235°
2026-04-22 13:27 26.40667 -52.51550 43051 ft 423 kts 235°
2026-04-22 13:27 26.37046 -52.56682 43061 ft 423 kts 235°
2026-04-22 13:28 26.33410 -52.61830 43062 ft 422 kts 235°
2026-04-22 13:28 26.29776 -52.66967 43057 ft 422 kts 235°
2026-04-22 13:29 26.26128 -52.72122 43061 ft 425 kts 235°
2026-04-22 13:29 26.22458 -52.77299 43071 ft 427 kts 235°
2026-04-22 13:30 26.18783 -52.82478 43074 ft 425 kts 235°
2026-04-22 13:30 26.15122 -52.87631 43068 ft 422 kts 235°
2026-04-22 13:31 26.11506 -52.92716 43062 ft 421 kts 235°
2026-04-22 13:31 26.07861 -52.97836 43057 ft 423 kts 235°
2026-04-22 13:32 26.04185 -53.02995 43069 ft 426 kts 235°
2026-04-22 13:32 26.00490 -53.08171 43070 ft 426 kts 235°
2026-04-22 13:33 25.96814 -53.13317 43067 ft 424 kts 235°
2026-04-22 13:33 25.93160 -53.18427 43063 ft 421 kts 235°
2026-04-22 13:34 25.89509 -53.23527 43057 ft 422 kts 235°
2026-04-22 13:34 25.85852 -53.28630 43069 ft 427 kts 234°
2026-04-22 13:35 25.82152 -53.33784 43070 ft 425 kts 234°
2026-04-22 13:35 25.78473 -53.38906 43072 ft 422 kts 234°
2026-04-22 13:36 25.74812 -53.43998 43064 ft 422 kts 234°
2026-04-22 13:36 25.71132 -53.49110 43062 ft 425 kts 235°
2026-04-22 13:37 25.67424 -53.54255 43064 ft 428 kts 234°
2026-04-22 13:37 25.63709 -53.59401 43066 ft 426 kts 234°
2026-04-22 13:38 25.60031 -53.64495 43058 ft 423 kts 234°
2026-04-22 13:38 25.54530 -53.72100 43057 ft 423 kts 234°
2026-04-22 13:39 25.50828 -53.77212 43073 ft 426 kts 234°
2026-04-22 13:39 25.47107 -53.82342 43071 ft 428 kts 234°
2026-04-22 13:40 25.43383 -53.87473 43073 ft 426 kts 234°
2026-04-22 13:40 25.39679 -53.92569 43068 ft 423 kts 234°
2026-04-22 13:41 25.35993 -53.97637 43064 ft 423 kts 234°
2026-04-22 13:41 25.32275 -54.02744 43076 ft 429 kts 234°
2026-04-22 13:42 25.28559 -54.07838 43073 ft 427 kts 234°
2026-04-22 13:42 25.24832 -54.12945 43069 ft 424 kts 234°
2026-04-22 13:43 25.21135 -54.18006 43065 ft 423 kts 234°
2026-04-22 13:43 25.17426 -54.23077 43064 ft 426 kts 234°
2026-04-22 13:44 25.13679 -54.28195 43080 ft 430 kts 234°
2026-04-22 13:44 25.09949 -54.33281 43076 ft 428 kts 234°
2026-04-22 13:45 25.06212 -54.38376 43069 ft 425 kts 234°
2026-04-22 13:45 25.02489 -54.43443 43059 ft 424 kts 234°
2026-04-22 13:46 24.98762 -54.48512 43060 ft 427 kts 234°
2026-04-22 13:46 24.95003 -54.53619 43074 ft 431 kts 234°
2026-04-22 13:47 24.91259 -54.58697 43074 ft 428 kts 234°
2026-04-22 13:47 24.87513 -54.63776 43073 ft 426 kts 234°
2026-04-22 13:48 24.83787 -54.68822 43071 ft 424 kts 234°
2026-04-22 13:48 24.80043 -54.73886 43066 ft 427 kts 234°
2026-04-22 13:49 24.76281 -54.78970 43071 ft 429 kts 234°
2026-04-22 13:49 24.72503 -54.84069 43073 ft 429 kts 234°
2026-04-22 13:50 24.68743 -54.89138 43069 ft 426 kts 234°
2026-04-22 13:50 24.65031 -54.94137 43065 ft 424 kts 234°
2026-04-22 13:51 24.61295 -54.99166 43067 ft 426 kts 234°
2026-04-22 13:51 24.57534 -55.04220 43079 ft 428 kts 234°
2026-04-22 13:52 24.53755 -55.09294 43080 ft 428 kts 234°
2026-04-22 13:52 24.49996 -55.14335 43076 ft 425 kts 234°
2026-04-22 13:53 24.46262 -55.19338 43070 ft 422 kts 234°
2026-04-22 13:53 24.42528 -55.24338 43066 ft 424 kts 234°
2026-04-22 13:54 24.38775 -55.29355 43076 ft 426 kts 234°
2026-04-22 13:54 24.35040 -55.34345 43078 ft 426 kts 234°
2026-04-22 13:55 24.31274 -55.39370 43078 ft 426 kts 234°
2026-04-22 13:55 24.27514 -55.44382 43077 ft 425 kts 234°
2026-04-22 13:56 24.23762 -55.49379 43070 ft 423 kts 234°
2026-04-22 13:56 24.20029 -55.54343 43075 ft 420 kts 234°
2026-04-22 13:57 24.16318 -55.59276 43071 ft 419 kts 234°
2026-04-22 13:57 24.12617 -55.64190 43074 ft 422 kts 234°
2026-04-22 13:58 24.08868 -55.69162 43077 ft 425 kts 234°
2026-04-22 13:58 24.05101 -55.74151 43061 ft 424 kts 234°
2026-04-22 13:59 24.01363 -55.79099 43067 ft 419 kts 234°
2026-04-22 13:59 23.97690 -55.83956 43066 ft 417 kts 234°
2026-04-22 14:00 23.93976 -55.88863 43073 ft 420 kts 234°
2026-04-22 14:00 23.90234 -55.93799 43154 ft 420 kts 234°
2026-04-22 14:01 23.88373 -55.96253 43298 ft 418 kts 234°
2026-04-22 14:01 23.86521 -55.98694 43425 ft 417 kts 234°
2026-04-22 14:01 23.83431 -56.02767 43465 ft 420 kts 234°
2026-04-22 14:02 23.79152 -56.08394 43467 ft 421 kts 234°
2026-04-22 14:02 23.75436 -56.13280 43465 ft 420 kts 234°
2026-04-22 14:03 23.71707 -56.18176 43460 ft 418 kts 234°
2026-04-22 14:03 23.67991 -56.23051 43458 ft 417 kts 234°
2026-04-22 14:04 23.64283 -56.27910 43459 ft 416 kts 234°
2026-04-22 14:04 23.60568 -56.32775 43465 ft 419 kts 234°
2026-04-22 14:05 23.56822 -56.37675 43470 ft 422 kts 234°
2026-04-22 14:06 23.51189 -56.45033 43467 ft 419 kts 234°
2026-04-22 14:06 23.47464 -56.49893 43462 ft 417 kts 234°
2026-04-22 14:07 23.43776 -56.54702 43467 ft 416 kts 234°
2026-04-22 14:07 23.40052 -56.59551 43472 ft 417 kts 234°
2026-04-22 14:08 23.36319 -56.64409 43472 ft 418 kts 234°
2026-04-22 14:08 23.32575 -56.69276 43287 ft 420 kts 234°
2026-04-22 14:08 23.30702 -56.71706 43151 ft 418 kts 234°
2026-04-22 14:09 23.28839 -56.74124 43077 ft 413 kts 234°
2026-04-22 14:09 23.25157 -56.78904 43073 ft 414 kts 234°
2026-04-22 14:10 23.21432 -56.83731 43075 ft 419 kts 234°
2026-04-22 14:10 23.17708 -56.88550 43076 ft 417 kts 234°
2026-04-22 14:11 23.13993 -56.93356 43078 ft 412 kts 234°
2026-04-22 14:11 23.10291 -56.98143 43074 ft 415 kts 234°
2026-04-22 14:12 23.06559 -57.02962 43074 ft 418 kts 234°
2026-04-22 14:12 23.02805 -57.07802 43068 ft 417 kts 234°
2026-04-22 14:13 22.99079 -57.12604 43083 ft 415 kts 234°
2026-04-22 14:13 22.95369 -57.17381 43075 ft 412 kts 234°
2026-04-22 14:14 22.91663 -57.22149 43078 ft 415 kts 234°
2026-04-22 14:14 22.87955 -57.26914 43079 ft 417 kts 234°
2026-04-22 14:15 22.84198 -57.31737 43083 ft 418 kts 234°
2026-04-22 14:15 22.80452 -57.36541 43069 ft 415 kts 234°
2026-04-22 14:16 22.77363 -57.40501 43072 ft 412 kts 234°
2026-04-22 14:16 22.73649 -57.45259 43067 ft 414 kts 234°
2026-04-22 14:17 22.69912 -57.50039 43075 ft 417 kts 233°
2026-04-22 14:17 22.66154 -57.54842 43079 ft 418 kts 233°
2026-04-22 14:18 22.62425 -57.59603 43073 ft 415 kts 233°
2026-04-22 14:18 22.58697 -57.64359 43070 ft 413 kts 234°
2026-04-22 14:19 22.54984 -57.69092 43072 ft 413 kts 233°
2026-04-22 14:19 22.51276 -57.73814 43075 ft 415 kts 233°
2026-04-22 14:20 22.45647 -57.80974 43077 ft 417 kts 233°
2026-04-22 14:20 22.41887 -57.85751 43077 ft 417 kts 233°
2026-04-22 14:21 22.36270 -57.92880 43073 ft 413 kts 233°
2026-04-22 14:22 22.30692 -57.99951 43069 ft 413 kts 233°
2026-04-22 14:23 22.25071 -58.07065 43073 ft 417 kts 233°
2026-04-22 14:23 22.21295 -58.11838 43077 ft 417 kts 233°
2026-04-22 14:24 22.17537 -58.16585 43057 ft 414 kts 233°
2026-04-22 14:24 22.13806 -58.21294 43074 ft 412 kts 233°
2026-04-22 14:25 22.10096 -58.25971 43083 ft 414 kts 233°
2026-04-22 14:25 22.06340 -58.30703 43086 ft 416 kts 233°
2026-04-22 14:26 22.02564 -58.35456 43082 ft 418 kts 233°
2026-04-22 14:26 21.98795 -58.40195 43079 ft 415 kts 233°
2026-04-22 14:27 21.95046 -58.44905 43074 ft 412 kts 233°
2026-04-22 14:27 21.91328 -58.49573 43075 ft 413 kts 233°
2026-04-22 14:28 21.87572 -58.54283 43074 ft 415 kts 233°
2026-04-22 14:28 21.83798 -58.59012 43076 ft 417 kts 233°
2026-04-22 14:29 21.80008 -58.63757 43079 ft 418 kts 233°
2026-04-22 14:29 21.76231 -58.68481 43076 ft 415 kts 233°
2026-04-22 14:30 21.72480 -58.73168 43072 ft 412 kts 233°
2026-04-22 14:30 21.68738 -58.77843 43069 ft 413 kts 233°
2026-04-22 14:31 21.64997 -58.82509 43075 ft 416 kts 233°
2026-04-22 14:31 21.61209 -58.87231 43078 ft 418 kts 233°
2026-04-22 14:32 21.57421 -58.91947 43077 ft 416 kts 233°
2026-04-22 14:32 21.53639 -58.96653 43073 ft 413 kts 233°
2026-04-22 14:33 21.49891 -59.01313 43069 ft 411 kts 233°
2026-04-22 14:33 21.46138 -59.05976 43078 ft 414 kts 233°
2026-04-22 14:34 21.42351 -59.10675 43080 ft 417 kts 233°
2026-04-22 14:34 21.38557 -59.15379 43080 ft 415 kts 233°
2026-04-22 14:35 21.34783 -59.20054 43073 ft 413 kts 233°
2026-04-22 14:35 21.31036 -59.24693 43070 ft 411 kts 233°
2026-04-22 14:36 21.27275 -59.29346 43076 ft 414 kts 233°
2026-04-22 14:36 21.23493 -59.34019 43082 ft 417 kts 233°
2026-04-22 14:37 21.19697 -59.38705 43085 ft 416 kts 233°
2026-04-22 14:37 21.15914 -59.43372 43081 ft 413 kts 233°
2026-04-22 14:38 21.12182 -59.47973 43074 ft 411 kts 233°
2026-04-22 14:38 21.08415 -59.52614 43075 ft 413 kts 233°
2026-04-22 14:39 21.04632 -59.57268 43076 ft 415 kts 233°
2026-04-22 14:39 21.00826 -59.61947 43077 ft 416 kts 233°
2026-04-22 14:40 20.95175 -59.68886 43072 ft 411 kts 233°
2026-04-22 14:40 20.91425 -59.73489 43066 ft 411 kts 233°
2026-04-22 14:41 20.87643 -59.78126 43076 ft 414 kts 233°
2026-04-22 14:41 20.83844 -59.82779 43075 ft 416 kts 233°
2026-04-22 14:42 20.80032 -59.87443 43061 ft 415 kts 233°
2026-04-22 14:42 20.76271 -59.92043 43068 ft 412 kts 233°
2026-04-22 14:43 20.72506 -59.96642 43058 ft 410 kts 233°
2026-04-22 14:43 20.68743 -60.01238 43058 ft 412 kts 233°
2026-04-22 14:44 20.64953 -60.05862 43063 ft 415 kts 233°
2026-04-22 14:44 20.61142 -60.10506 43070 ft 416 kts 233°
2026-04-22 14:45 20.57342 -60.15132 43064 ft 413 kts 233°
2026-04-22 14:45 20.53569 -60.19724 43066 ft 410 kts 233°
2026-04-22 14:46 20.49807 -60.24300 43065 ft 411 kts 233°
2026-04-22 14:46 20.46024 -60.28895 43068 ft 413 kts 233°
2026-04-22 14:47 20.42241 -60.33487 43072 ft 416 kts 233°
2026-04-22 14:47 20.38434 -60.38104 43071 ft 414 kts 233°
2026-04-22 14:48 20.34644 -60.42697 43068 ft 411 kts 233°
2026-04-22 14:48 20.30880 -60.47254 43070 ft 409 kts 233°
2026-04-22 14:49 20.27107 -60.51822 43071 ft 411 kts 233°
2026-04-22 14:49 20.23312 -60.56409 43075 ft 414 kts 233°
2026-04-22 14:50 20.19518 -60.60992 43078 ft 414 kts 233°
2026-04-22 14:50 20.15718 -60.65578 43075 ft 412 kts 233°
2026-04-22 14:51 20.11938 -60.70137 43069 ft 409 kts 233°
2026-04-22 14:51 20.08173 -60.74676 43063 ft 411 kts 233°
2026-04-22 14:52 20.04369 -60.79256 43075 ft 414 kts 233°
2026-04-22 14:52 20.00550 -60.83849 43074 ft 413 kts 233°
2026-04-22 14:53 19.96758 -60.88409 43069 ft 410 kts 233°
2026-04-22 14:53 19.93012 -60.92910 43065 ft 409 kts 233°
2026-04-22 14:54 19.89226 -60.97455 43069 ft 412 kts 233°
2026-04-22 14:54 19.85417 -61.02023 43064 ft 414 kts 233°
2026-04-22 14:55 19.81585 -61.06616 43075 ft 414 kts 233°
2026-04-22 14:55 19.77779 -61.11174 43071 ft 410 kts 233°
2026-04-22 14:56 19.74000 -61.15697 43066 ft 410 kts 233°
2026-04-22 14:56 19.70199 -61.20242 43070 ft 413 kts 233°
2026-04-22 14:57 19.66368 -61.24818 43075 ft 415 kts 233°
2026-04-22 14:57 19.62570 -61.29351 43047 ft 412 kts 233°
2026-04-22 14:58 19.58775 -61.33879 43062 ft 410 kts 232°
2026-04-22 14:58 19.54974 -61.38411 43060 ft 411 kts 232°
2026-04-22 14:59 19.51162 -61.42951 43062 ft 413 kts 232°
2026-04-22 14:59 19.47339 -61.47501 43067 ft 414 kts 232°
2026-04-22 15:00 19.43500 -61.52067 43070 ft 414 kts 232°
2026-04-22 15:00 19.39670 -61.56618 43066 ft 413 kts 232°
2026-04-22 15:01 19.35853 -61.61151 43061 ft 412 kts 232°
2026-04-22 15:01 19.32038 -61.65678 42641 ft 412 kts 232°
2026-04-22 15:02 19.30169 -61.67891 42116 ft 405 kts 232°
2026-04-22 15:02 19.28314 -61.70088 41588 ft 396 kts 233°
2026-04-22 15:02 19.26504 -61.72232 41074 ft 387 kts 233°
2026-04-22 15:02 19.25297 -61.73665 40731 ft 383 kts 233°
2026-04-22 15:03 19.23106 -61.76261 40116 ft 380 kts 233°
2026-04-22 15:03 19.21346 -61.78348 39610 ft 386 kts 233°
2026-04-22 15:03 19.19534 -61.80495 39099 ft 395 kts 232°
2026-04-22 15:03 19.17692 -61.82673 38542 ft 400 kts 232°
2026-04-22 15:04 19.16437 -61.84153 38170 ft 399 kts 232°
2026-04-22 15:04 19.14588 -61.86337 37644 ft 398 kts 232°
2026-04-22 15:04 19.12741 -61.88521 37117 ft 398 kts 233°
2026-04-22 15:04 19.10889 -61.90711 36593 ft 402 kts 233°
2026-04-22 15:05 19.09042 -61.92894 36071 ft 406 kts 232°
2026-04-22 15:05 19.07181 -61.95089 35544 ft 409 kts 232°
2026-04-22 15:05 19.05238 -61.97381 34992 ft 413 kts 232°
2026-04-22 15:05 19.03311 -61.99654 34445 ft 416 kts 232°
2026-04-22 15:06 19.01375 -62.01938 33872 ft 418 kts 232°
2026-04-22 15:06 18.99428 -62.04231 33308 ft 419 kts 232°
2026-04-22 15:06 18.97483 -62.06523 32755 ft 419 kts 232°
2026-04-22 15:06 18.95533 -62.08821 32198 ft 422 kts 232°
2026-04-22 15:07 18.93557 -62.11149 31639 ft 427 kts 232°
2026-04-22 15:07 18.91588 -62.13467 31082 ft 431 kts 232°
2026-04-22 15:07 18.89579 -62.15829 30512 ft 433 kts 232°
2026-04-22 15:07 18.87563 -62.18198 29888 ft 434 kts 232°
2026-04-22 15:08 18.85550 -62.20566 29326 ft 431 kts 232°
2026-04-22 15:08 18.83552 -62.22910 28759 ft 427 kts 232°
2026-04-22 15:08 18.81576 -62.25230 28203 ft 423 kts 232°
2026-04-22 15:08 18.79620 -62.27529 27641 ft 419 kts 232°
2026-04-22 15:09 18.77681 -62.29806 27091 ft 416 kts 232°
2026-04-22 15:09 18.75749 -62.32073 26544 ft 413 kts 232°
2026-04-22 15:09 18.73835 -62.34317 26006 ft 411 kts 232°
2026-04-22 15:09 18.71928 -62.36553 25462 ft 408 kts 232°
2026-04-22 15:10 18.70028 -62.38779 24925 ft 406 kts 232°
2026-04-22 15:10 18.68149 -62.40981 24395 ft 403 kts 232°
2026-04-22 15:10 18.66282 -62.43168 23861 ft 400 kts 232°
2026-04-22 15:10 18.64424 -62.45343 23296 ft 397 kts 232°
2026-04-22 15:11 18.62584 -62.47496 22772 ft 393 kts 231°
2026-04-22 15:11 18.60777 -62.49612 22261 ft 394 kts 231°
2026-04-22 15:11 18.58937 -62.51766 21736 ft 396 kts 231°
2026-04-22 15:11 18.57094 -62.53919 21221 ft 394 kts 231°
2026-04-22 15:12 18.55267 -62.56053 20698 ft 391 kts 231°
2026-04-22 15:12 18.53446 -62.58181 20187 ft 389 kts 231°
2026-04-22 15:12 18.51637 -62.60294 19675 ft 388 kts 230°
2026-04-22 15:12 18.49827 -62.62408 19163 ft 387 kts 230°
2026-04-22 15:13 18.48020 -62.64517 18655 ft 387 kts 230°
2026-04-22 15:13 18.46215 -62.66623 18116 ft 386 kts 230°
2026-04-22 15:13 18.44425 -62.68710 17599 ft 382 kts 230°
2026-04-22 15:13 18.42650 -62.70779 17097 ft 379 kts 230°
2026-04-22 15:14 18.40888 -62.72834 16599 ft 377 kts 230°
2026-04-22 15:14 18.39129 -62.74884 16102 ft 377 kts 230°
2026-04-22 15:14 18.37369 -62.76934 15605 ft 377 kts 229°
2026-04-22 15:14 18.35639 -62.78958 15109 ft 376 kts 230°
2026-04-22 15:15 18.34135 -62.81207 14614 ft 373 kts 241°
2026-04-22 15:15 18.32993 -62.83641 14132 ft 370 kts 246°
2026-04-22 15:15 18.31890 -62.86084 13621 ft 364 kts 245°
2026-04-22 15:15 18.30820 -62.88423 13139 ft 346 kts 245°
2026-04-22 15:16 18.29797 -62.90661 12687 ft 331 kts 246°
2026-04-22 15:16 18.28829 -62.92792 12265 ft 318 kts 245°
2026-04-22 15:16 18.27957 -62.94711 11875 ft 309 kts 245°
2026-04-22 15:16 18.27039 -62.96719 11453 ft 294 kts 246°
2026-04-22 15:17 18.26197 -62.98566 11084 ft 269 kts 246°
2026-04-22 15:17 18.25409 -63.00294 10749 ft 256 kts 245°
2026-04-22 15:17 18.24653 -63.01955 10416 ft 247 kts 246°
2026-04-22 15:17 18.23929 -63.03543 10135 ft 238 kts 246°
2026-04-22 15:18 18.23229 -63.05080 9865 ft 234 kts 246°
2026-04-22 15:18 18.22529 -63.06612 9567 ft 232 kts 245°
2026-04-22 15:18 18.21831 -63.08139 9272 ft 231 kts 245°
2026-04-22 15:18 18.21513 -63.08836 9135 ft 231 kts 245°
2026-04-22 15:19 18.20802 -63.10386 8833 ft 231 kts 245°
2026-04-22 15:19 18.20106 -63.11918 8537 ft 232 kts 245°
2026-04-22 15:19 18.19407 -63.13449 8227 ft 233 kts 245°
2026-04-22 15:19 18.18693 -63.15008 7908 ft 239 kts 245°
2026-04-22 15:20 18.17969 -63.16593 7563 ft 242 kts 244°
2026-04-22 15:20 18.17237 -63.18193 7221 ft 244 kts 244°
2026-04-22 15:20 18.16501 -63.19803 6889 ft 244 kts 244°
2026-04-22 15:20 18.15763 -63.21416 6563 ft 245 kts 244°
2026-04-22 15:21 18.15022 -63.23034 6217 ft 244 kts 244°
2026-04-22 15:21 18.14293 -63.24626 5906 ft 241 kts 244°
2026-04-22 15:21 18.13569 -63.26205 5586 ft 237 kts 244°
2026-04-22 15:21 18.12871 -63.27730 5313 ft 228 kts 243°
2026-04-22 15:22 18.11972 -63.29081 5035 ft 224 kts 223°
2026-04-22 15:22 18.10724 -63.30027 4805 ft 211 kts 206°
2026-04-22 15:22 18.09442 -63.30476 4525 ft 183 kts 188°
2026-04-22 15:22 18.08213 -63.30551 4328 ft 177 kts 172°
2026-04-22 15:23 18.07013 -63.30357 4123 ft 173 kts 167°
2026-04-22 15:23 18.05825 -63.30174 3894 ft 172 kts 169°
2026-04-22 15:23 18.04638 -63.29994 3675 ft 172 kts 169°
2026-04-22 15:23 18.03484 -63.29707 3441 ft 170 kts 153°
2026-04-22 15:24 18.02552 -63.28978 3223 ft 166 kts 130°
2026-04-22 15:24 18.01974 -63.27954 3006 ft 165 kts 108°
2026-04-22 15:24 18.01824 -63.26782 2923 ft 151 kts 86°
2026-04-22 15:24 18.01974 -63.25689 2643 ft 150 kts 80°
2026-04-22 15:25 18.02117 -63.24685 2577 ft 136 kts 81°
2026-04-22 15:25 18.02263 -63.23668 2604 ft 141 kts 81°
2026-04-22 15:25 18.02415 -63.22618 2101 ft 149 kts 80°
2026-04-22 15:25 18.02561 -63.21592 1656 ft 127 kts 79°
2026-04-22 15:26 18.02693 -63.20689 1600 ft 133 kts 80°
2026-04-22 15:26 18.02834 -63.19705 1462 ft 138 kts 79°
2026-04-22 15:26 18.02974 -63.18723 1277 ft 134 kts 80°
2026-04-22 15:26 18.03114 -63.17737 1103 ft 139 kts 79°
2026-04-22 15:27 18.03254 -63.16756 922 ft 135 kts 79°
2026-04-22 15:27 18.03393 -63.15786 761 ft 135 kts 80°
2026-04-22 15:27 18.03533 -63.14798 587 ft 138 kts 79°
2026-04-22 15:27 18.03680 -63.13783 394 ft 142 kts 78°
2026-04-22 15:28 18.03823 -63.12760 252 ft 144 kts 78°
2026-04-22 15:28 18.03969 -63.11760 49 ft 132 kts 77°
2026-04-22 15:28 18.04092 -63.10908 15 ft 95 kts 79°
2026-04-22 15:28 18.04169 -63.10359 14 ft 62 kts 82°
2026-04-22 15:29 18.04227 -63.09983 14 ft 39 kts 73°
2026-04-22 15:29 18.04284 -63.09840 17 ft 11 kts 143°
2026-04-22 15:29 18.04238 -63.09917 14 ft 31 kts 258°
2026-04-22 15:30 18.04128 -63.10653 18 ft 56 kts 262°
2026-04-22 15:30 18.04089 -63.10963 18 ft 14 kts 283°
2026-04-22 15:30 18.04162 -63.10999 16 ft 7 kts
2026-04-22 15:30 18.04177 -63.10968 16 ft 9 kts 79°
2026-04-22 15:31 18.04181 -63.10909 16 ft 3 kts 72°
2026-04-22 15:31 18.04190 -63.10903 16 ft 0 kts